This is the latest recevied weather packets stored in our database for station/object KO4DYK. If no packets are shown the sender has not sent any weather packets the latest 10 day(s).
| Time | Temp. | Humidity | Pressure | Rain* | Wind** | Luminosity | Snow |
|---|---|---|---|---|---|---|---|
| 1777074172 | 19.44° C | 96% | 1012.4 hPa | 0 mm | - | 39 W/m² | - |
| 1777073869 | 19.44° C | 96% | 1012.6 hPa | 0 mm | - | 44 W/m² | - |
| 1777073564 | 19.44° C | 96% | 1012.6 hPa | 0 mm | - | 50 W/m² | - |
| 1777073260 | 18.89° C | 96% | 1012.7 hPa | 0 mm | - | 55 W/m² | - |
| 1777072955 | 18.89° C | 96% | 1012.8 hPa | 0 mm | - | 57 W/m² | - |
| 1777072652 | 18.89° C | 96% | 1012.9 hPa | 0 mm | - | 54 W/m² | - |
| 1777072351 | 18.89° C | 96% | 1013.1 hPa | 0 mm | - | 47 W/m² | - |
| 1777072050 | 18.89° C | 96% | 1012.9 hPa | 0 mm | - | 51 W/m² | - |
| 1777071746 | 19.44° C | 95% | 1012.6 hPa | 0 mm | - | 65 W/m² | - |
| 1777071443 | 18.89° C | 94% | 1012.6 hPa | 0 mm | - | 66 W/m² | - |
| 1777071143 | 18.89° C | 94% | 1011.8 hPa | 0 mm | - | 54 W/m² | - |
| 1777070839 | 18.89° C | 95% | 1011 hPa | 0 mm | - | 47 W/m² | - |
| 1777070537 | 19.44° C | 94% | 1011.2 hPa | 0 mm | - | 40 W/m² | - |
| 1777070235 | 19.44° C | 94% | 1011.5 hPa | 0 mm | - | 38 W/m² | - |
| 1777069931 | 19.44° C | 94% | 1011.5 hPa | 0 mm | - | 38 W/m² | - |
| 1777069630 | 20° C | 95% | 1011.6 hPa | 0 mm | - | 38 W/m² | - |
| 1777069326 | 20° C | 96% | 1011.7 hPa | 0 mm | - | 41 W/m² | - |
| 1777069023 | 20° C | 96% | 1011.7 hPa | 0 mm | - | 46 W/m² | - |
| 1777068719 | 20° C | 96% | 1011.6 hPa | 0 mm | - | 46 W/m² | - |
| 1777068419 | 20° C | 97% | 1011.6 hPa | 0 mm | - | 52 W/m² | - |
| 1777068118 | 20° C | 97% | 1011.3 hPa | 0 mm | - | 72 W/m² | - |
| 1777067813 | 20° C | 96% | 1011.6 hPa | 0 mm | - | 74 W/m² | - |
| 1777067512 | 20° C | 96% | 1011.9 hPa | 0 mm | - | 76 W/m² | - |
| 1777067211 | 20° C | 95% | 1011.8 hPa | 0 mm | - | 106 W/m² | - |
| 1777066907 | 19.44° C | 96% | 1011.8 hPa | 0 mm | - | 140 W/m² | - |
* Rain latest hour (hover to see other rain measurements)
** Current wind speed in m/s (hover to see current wind gust speed)